When you browse on this site, cookies collect data to enhance your experience and personalize the content and advertising you see.
Visit our Privacy Policy to learn more. By continuing to use the site, you agree to this use of cookies and data.
  • In United Kingdom
  • List of Countries
  • For 7 days
  • Water Temperature
  • Satellite Maps
  • Weather Map
  • Weather Widgets
  • user-avatar
    Login

    Hourly Weather Havana

    Today, 23 July, Tuesday

    Time Temperature Precipitation Wind Pressure Humidity
    00:00 +27°C° 0 mm 2 mps 760 mmHg 86%
    01:00 +27°C° 0 mm 2 mps 760 mmHg 87%
    02:00 +26°C° 0 mm 2 mps 760 mmHg 88%
    03:00 +26°C° 0 mm 2 mps 759 mmHg 89%
    04:00 +26°C° 0 mm 2 mps 759 mmHg 90%
    05:00 +26°C° 0 mm 2 mps 759 mmHg 90%
    06:00 +27°C° 0 mm 2 mps 759 mmHg 89%
    07:00 +27°C° 0 mm 2 mps 760 mmHg 89%
    08:00 +29°C° 0 mm 2 mps 760 mmHg 80%
    09:00 +31°C° 0 mm 1 mps 760 mmHg 71%
    10:00 +32°C° 0 mm 1 mps 761 mmHg 63%
    11:00 +33°C° 0.1 mm 1 mps 761 mmHg 60%
    12:00 +35°C° 0.1 mm 2 mps 761 mmHg 57%
    13:00 +36°C° 0.1 mm 2 mps 760 mmHg 53%
    14:00 +35°C° 0.9 mm 3 mps 760 mmHg 60%
    15:00 +34°C° 0.9 mm 3 mps 760 mmHg 66%
    16:00 +32°C° 0.9 mm 4 mps 759 mmHg 72%
    17:00 +31°C° 0.4 mm 3 mps 759 mmHg 75%
    18:00 +30°C° 0.4 mm 3 mps 760 mmHg 78%
    19:00 +29°C° 0.4 mm 2 mps 760 mmHg 81%
    20:00 +28°C° 0 mm 2 mps 760 mmHg 82%
    21:00 +28°C° 0 mm 2 mps 760 mmHg 83%
    22:00 +27°C° 0 mm 2 mps 761 mmHg 83%
    23:00 +27°C° 0 mm 2 mps 761 mmHg 83%

    Tomorrow, 24 July, Wednesday

    Time Temperature Precipitation Wind Pressure Humidity
    00:00 +27°C° 0 mm 2 mps 760 mmHg 83%
    01:00 +27°C° 0 mm 1 mps 760 mmHg 83%
    02:00 +27°C° 0 mm 1 mps 760 mmHg 83%
    03:00 +26°C° 0 mm 1 mps 760 mmHg 83%
    04:00 +26°C° 0 mm 1 mps 759 mmHg 84%
    05:00 +27°C° 0 mm 1 mps 760 mmHg 84%
    06:00 +27°C° 0 mm 1 mps 760 mmHg 84%
    07:00 +28°C° 0 mm 1 mps 760 mmHg 85%
    08:00 +29°C° 0 mm 2 mps 761 mmHg 78%
    09:00 +31°C° 0 mm 2 mps 761 mmHg 71%
    10:00 +34°C° 0 mm 2 mps 761 mmHg 64%
    11:00 +34°C° 0 mm 3 mps 761 mmHg 62%
    12:00 +35°C° 0 mm 3 mps 761 mmHg 59%
    13:00 +35°C° 0 mm 3 mps 761 mmHg 57%
    14:00 +35°C° 0.6 mm 3 mps 760 mmHg 57%
    15:00 +35°C° 0.6 mm 3 mps 760 mmHg 57%
    16:00 +35°C° 0.6 mm 4 mps 760 mmHg 57%
    17:00 +33°C° 0.5 mm 3 mps 760 mmHg 65%
    18:00 +31°C° 0.5 mm 2 mps 760 mmHg 73%
    19:00 +29°C° 0.5 mm 1 mps 761 mmHg 80%
    20:00 +29°C° 0.1 mm 1 mps 761 mmHg 82%
    21:00 +28°C° 0.1 mm 1 mps 761 mmHg 83%
    22:00 +28°C° 0.1 mm 1 mps 762 mmHg 85%
    23:00 +27°C° 0 mm 1 mps 761 mmHg 85%

    Day after tomorrow, 25 July, Thursday

    Time Temperature Precipitation Wind Pressure Humidity
    00:00 +27°C° 0 mm 1 mps 761 mmHg 85%
    01:00 +27°C° 0 mm 1 mps 761 mmHg 86%
    02:00 +27°C° 0 mm 1 mps 761 mmHg 87%
    03:00 +27°C° 0 mm 2 mps 760 mmHg 87%
    04:00 +26°C° 0 mm 2 mps 760 mmHg 88%
    05:00 +27°C° 0 mm 2 mps 760 mmHg 87%
    06:00 +27°C° 0 mm 2 mps 761 mmHg 87%
    07:00 +27°C° 0 mm 3 mps 761 mmHg 86%
    08:00 +29°C° 0 mm 3 mps 761 mmHg 78%
    09:00 +31°C° 0 mm 2 mps 762 mmHg 71%
    10:00 +34°C° 0 mm 2 mps 762 mmHg 63%
    11:00 +34°C° 0 mm 3 mps 762 mmHg 59%
    12:00 +35°C° 0 mm 3 mps 762 mmHg 55%
    13:00 +36°C° 0 mm 3 mps 762 mmHg 51%
    14:00 +36°C° 0 mm 3 mps 761 mmHg 52%
    15:00 +36°C° 0 mm 3 mps 761 mmHg 54%
    16:00 +36°C° 0 mm 3 mps 761 mmHg 55%
    17:00 +34°C° 0.3 mm 4 mps 761 mmHg 65%
    18:00 +32°C° 0.3 mm 4 mps 761 mmHg 74%
    19:00 +29°C° 0.3 mm 4 mps 762 mmHg 83%
    20:00 +29°C° 0.2 mm 4 mps 762 mmHg 85%
    21:00 +28°C° 0.2 mm 4 mps 762 mmHg 86%
    22:00 +28°C° 0.2 mm 4 mps 762 mmHg 87%
    23:00 +28°C° 0.3 mm 4 mps 762 mmHg 88%

    26 July, Friday

    Time Temperature Precipitation Wind Pressure Humidity
    00:00 +28°C° 0.3 mm 4 mps 762 mmHg 88%
    01:00 +28°C° 0.3 mm 4 mps 762 mmHg 88%
    02:00 +27°C° 0.6 mm 4 mps 762 mmHg 89%
    03:00 +27°C° 0.6 mm 4 mps 761 mmHg 89%
    04:00 +27°C° 0.6 mm 4 mps 761 mmHg 90%
    05:00 +27°C° 0.9 mm 4 mps 761 mmHg 89%
    06:00 +28°C° 0.9 mm 4 mps 762 mmHg 89%
    07:00 +28°C° 0.9 mm 5 mps 762 mmHg 88%
    08:00 +29°C° 0 mm 5 mps 763 mmHg 83%
    09:00 +32°C° 0 mm 5 mps 763 mmHg 78%
    10:00 +33°C° 0 mm 5 mps 763 mmHg 73%
    11:00 +34°C° 0.1 mm 5 mps 763 mmHg 67%
    12:00 +35°C° 0.1 mm 6 mps 763 mmHg 61%
    13:00 +36°C° 0.1 mm 6 mps 763 mmHg 56%
    14:00 +36°C° 0 mm 6 mps 762 mmHg 59%
    15:00 +35°C° 0 mm 6 mps 762 mmHg 62%
    16:00 +34°C° 0 mm 7 mps 761 mmHg 65%
    17:00 +33°C° 0 mm 6 mps 762 mmHg 71%
    18:00 +32°C° 0 mm 6 mps 762 mmHg 77%
    19:00 +29°C° 0 mm 6 mps 762 mmHg 84%
    20:00 +29°C° 0 mm 6 mps 762 mmHg 84%
    21:00 +29°C° 0 mm 7 mps 763 mmHg 85%
    22:00 +28°C° 0 mm 7 mps 763 mmHg 86%
    23:00 +28°C° 0 mm 6 mps 763 mmHg 88%

    27 July, Saturday

    Time Temperature Precipitation Wind Pressure Humidity
    00:00 +28°C° 0 mm 6 mps 763 mmHg 89%
    01:00 +27°C° 0 mm 6 mps 762 mmHg 90%
    02:00 +27°C° 0 mm 6 mps 762 mmHg 90%
    03:00 +27°C° 0 mm 6 mps 762 mmHg 90%
    04:00 +27°C° 0 mm 6 mps 762 mmHg 90%
    05:00 +27°C° 0 mm 5 mps 762 mmHg 89%
    06:00 +27°C° 0 mm 5 mps 763 mmHg 88%
    07:00 +28°C° 0 mm 5 mps 763 mmHg 87%
    08:00 +29°C° 0.1 mm 5 mps 763 mmHg 80%
    09:00 +32°C° 0.1 mm 6 mps 763 mmHg 73%
    10:00 +34°C° 0.1 mm 6 mps 764 mmHg 66%
    11:00 +34°C° 0.2 mm 6 mps 764 mmHg 62%
    12:00 +35°C° 0.2 mm 5 mps 763 mmHg 58%
    13:00 +36°C° 0.2 mm 5 mps 763 mmHg 54%
    14:00 +36°C° 0.5 mm 5 mps 763 mmHg 56%
    15:00 +36°C° 0.5 mm 5 mps 763 mmHg 58%
    16:00 +35°C° 0.5 mm 5 mps 762 mmHg 60%
    17:00 +34°C° 0.6 mm 5 mps 762 mmHg 68%
    18:00 +32°C° 0.6 mm 4 mps 763 mmHg 76%
    19:00 +30°C° 0.6 mm 4 mps 763 mmHg 83%
    20:00 +29°C° 0.1 mm 4 mps 763 mmHg 84%
    21:00 +29°C° 0.1 mm 4 mps 763 mmHg 84%
    22:00 +28°C° 0.1 mm 4 mps 764 mmHg 85%
    23:00 +28°C° 0.1 mm 4 mps 764 mmHg 87%

    28 July, Sunday

    Time Temperature Precipitation Wind Pressure Humidity
    00:00 +27°C° 0.1 mm 4 mps 763 mmHg 89%
    01:00 +27°C° 0.1 mm 4 mps 763 mmHg 91%
    02:00 +27°C° 0 mm 4 mps 763 mmHg 93%
    03:00 +27°C° 0 mm 4 mps 763 mmHg 94%
    04:00 +27°C° 0 mm 4 mps 763 mmHg 95%
    05:00 +27°C° 0 mm 4 mps 763 mmHg 94%
    06:00 +27°C° 0 mm 4 mps 763 mmHg 93%
    07:00 +28°C° 0 mm 4 mps 763 mmHg 92%
    08:00 +29°C° 0 mm 4 mps 763 mmHg 85%
    09:00 +32°C° 0 mm 4 mps 764 mmHg 78%
    10:00 +34°C° 0 mm 4 mps 764 mmHg 71%
    11:00 +35°C° 0 mm 5 mps 763 mmHg 69%
    12:00 +35°C° 0 mm 5 mps 763 mmHg 66%
    13:00 +36°C° 0 mm 6 mps 763 mmHg 63%
    14:00 +35°C° 0 mm 6 mps 763 mmHg 65%
    15:00 +35°C° 0 mm 6 mps 762 mmHg 66%
    16:00 +34°C° 0 mm 6 mps 762 mmHg 68%
    17:00 +33°C° 0 mm 6 mps 762 mmHg 74%
    18:00 +32°C° 0 mm 6 mps 762 mmHg 80%
    19:00 +30°C° 0 mm 6 mps 762 mmHg 86%
    20:00 +29°C° 0 mm 6 mps 762 mmHg 87%
    21:00 +29°C° 0 mm 5 mps 762 mmHg 89%
    22:00 +28°C° 0 mm 5 mps 762 mmHg 90%
    23:00 +28°C° 0 mm 5 mps 762 mmHg 91%
    Show more